Weather History for Kerman, Iran

Change the Weather History Date:

Wednesday, February 6, 2013

  Actual Average Record
Temperature  
Mean Temperature 46 °F -  
Max Temperature 69 °F 59 °F - ()
Min Temperature 24 °F 32 °F - ()
Degree Days  
Heating Degree Days 18    
Moisture  
Dew Point 22 °F    
Average Humidity 46    
Maximum Humidity 93    
Minimum Humidity 6    
Precipitation  
Precipitation 0.00 in 0.04 in - ()
Sea Level Pressure  
Sea Level Pressure 30.34 in    
Wind  
Wind Speed 3 mph ()    
Max Wind Speed 9 mph    
Max Gust Speed -    
Visibility 9.0 miles    
Events      
T = Trace of Precipitation, MM = Missing Value Source: Averaged Metar Reports

Daily Weather History Graph

Daily Weather History Graph

Search for Another Location

Airport:

Trip Planner

Search our weather history database for the weather conditions in past years. The results will help you decide how hot, cold, wet, or windy it might be!

Date:

Astronomy

Feb. 06, 2013 Rise Set
Actual Time 6:29 AM IRST 5:23 PM IRST
Civil Twilight 6:04 AM IRST 5:48 PM IRST
Nautical Twilight 5:36 AM IRST 6:16 PM IRST
Astronomical Twilight 5:08 AM IRST 6:44 PM IRST
Moon 2:40 AM IRST (2/6) 1:23 PM IRST (2/6)
Length of Visible Light 11h 43m
Length of Day
10h 53m
Waning Crescent, 20% of the Moon is Illuminated
Feb 6
Waning Crescent
Feb 10
New
Feb 18
First Quarter
Feb 25
Full
Mar 5
Last Quarter

Hourly Weather History & Observations

Time (IRST) Temp. Windchill Dew Point Humidity Pressure Visibility Wind Dir Wind Speed Gust Speed Precip Events Conditions
12:20 AM 30.2 °F 25.4 °F 26.6 °F 86% 30.33 in - East 4.6 mph - N/A   Clear
12:30 AM 30.2 °F 25.4 °F 26.6 °F 86% 30.33 in - East 4.6 mph - N/A   Clear
1:20 AM 28.4 °F - 24.8 °F 86% 30.33 in - Calm Calm - N/A   Clear
2:20 AM 26.6 °F 21.2 °F 24.8 °F 93% 30.33 in - South 4.6 mph - N/A   Clear
3:30 AM 25 °F - 23 °F 90% 30.32 in 9 mi Calm Calm - -  
3:30 AM 24.8 °F - 23.0 °F 93% 30.33 in - Calm Calm - N/A   Clear
4:20 AM 24.8 °F - 23.0 °F 93% 30.33 in - Calm Calm - N/A   Clear
8:20 AM 37.4 °F 33.8 °F 26.6 °F 65% 30.39 in - ESE 4.6 mph - N/A   Clear
9:20 AM 46.4 °F 44.3 °F 26.6 °F 46% 30.42 in - East 4.6 mph - N/A   Clear
9:30 AM 46 °F - 26 °F 32% 30.40 in 9 mi East 4.5 mph - -  
10:30 AM 53.6 °F - 24.8 °F 33% 30.39 in - SSE 4.6 mph - N/A   Clear
11:20 AM 55.4 °F - 21.2 °F 26% 30.39 in - ESE 4.6 mph - N/A   Clear
11:30 AM 55.4 °F - 21.2 °F 26% 30.39 in - ESE 4.6 mph - N/A   Clear
12:20 PM 60.8 °F - 19.4 °F 20% 30.36 in - East 6.9 mph - N/A   Clear
1:20 PM 62.6 °F - 19.4 °F 19% 30.33 in - North 4.6 mph - N/A   Clear
1:30 PM 64.4 °F - 19.4 °F 18% 30.33 in - North 4.6 mph - N/A   Clear
2:20 PM 66.2 °F - 12.2 °F 12% 30.30 in - ESE 4.6 mph - N/A   Clear
2:30 PM 66.2 °F - 12.2 °F 12% 30.30 in - ESE 4.6 mph - N/A   Clear
3:30 PM 68 °F - 15 °F 6% 30.22 in 9 mi Calm Calm - -  
3:30 PM 68.0 °F - 15.8 °F 13% 30.30 in - Calm Calm - N/A   Clear
4:20 PM 69.8 °F - 14.0 °F 12% 30.30 in - Calm Calm - N/A   Clear
5:20 PM 64.4 °F - 15.8 °F 15% 30.30 in - ENE 4.6 mph - N/A   Clear
6:30 PM 51.8 °F - 23.0 °F 33% 30.33 in - WNW 4.6 mph - N/A   Clear
7:20 PM 48.2 °F - 23.0 °F 37% 30.33 in - Calm Calm - N/A   Clear
7:30 PM 48.2 °F - 23.0 °F 37% 30.33 in - Calm Calm - N/A   Clear
8:20 PM 44.6 °F 42.2 °F 24.8 °F 46% 30.36 in - ESE 4.6 mph - N/A   Clear
8:30 PM 44.6 °F 42.2 °F 24.8 °F 46% 30.36 in - ESE 4.6 mph - N/A   Clear
9:20 PM 41.0 °F 38.0 °F 26.6 °F 57% 30.36 in - East 4.6 mph - N/A   Clear
9:30 PM 42 °F - 26 °F 40% 30.31 in 9 mi East 4.5 mph - -  
10:20 PM 37.4 °F 30.8 °F 26.6 °F 65% 30.36 in - ESE 9.2 mph - N/A   Clear
10:30 PM 37.4 °F 30.8 °F 26.6 °F 65% 30.36 in - ESE 9.2 mph - N/A   Clear
11:20 PM 35.6 °F 29.9 °F 26.6 °F 70% 30.33 in - ESE 6.9 mph - N/A   Clear